Weather History for Peru, IN

Change the Weather History Date:

Thursday, January 3, 2013

  Actual Average Record
Temperature  
Mean Temperature 21 °F -  
Max Temperature 30 °F 32 °F 57 °F (1997)
Min Temperature 12 °F 21 °F -11 °F (2014)
Degree Days  
Heating Degree Days 44    
Moisture  
Dew Point 17 °F    
Average Humidity 78    
Maximum Humidity 86    
Minimum Humidity 64    
Precipitation  
Precipitation 0.00 in - - ()
Sea Level Pressure  
Sea Level Pressure 30.23 in    
Wind  
Wind Speed 12 mph (WSW)    
Max Wind Speed 18 mph    
Max Gust Speed -    
Visibility 10 miles    
Events Snow    
Averages and records for this station are not official NWS values.
T = Trace of Precipitation, MM = Missing Value Source: NWS Daily Summary

Daily Weather History Graph

Daily Weather History Graph

Search for Another Location

Airport:

Trip Planner

Search our weather history database for the weather conditions in past years. The results will help you decide how hot, cold, wet, or windy it might be!

Date:

Astronomy

Jan. 03, 2013 Rise Set
Actual Time 8:08 AM EST 5:30 PM EST
Civil Twilight 7:37 AM EST 6:00 PM EST
Nautical Twilight 7:03 AM EST 6:35 PM EST
Astronomical Twilight 6:30 AM EST 7:08 PM EST
Moon No Moon Rise 11:17 AM EST (1/3)
Length of Visible Light 10h 22m
Length of Day
9h 21m
Waning Gibbous, 65% of the Moon is Illuminated
Jan 3
Waning Gibbous
Jan 4
Last Quarter
Jan 11
New
Jan 18
First Quarter
Jan 26
Full

Hourly Weather History & Observations

Time (EST) Temp. Windchill Dew Point Humidity Pressure Visibility Wind Dir Wind Speed Gust Speed Precip Events Conditions
12:55 AM 14.5 °F 2.7 °F 5.4 °F 67% 30.20 in 10.0 mi South 9.2 mph - N/A   Clear
1:55 AM 12.9 °F -0.2 °F 4.8 °F 70% 30.20 in 10.0 mi SW 10.4 mph - N/A   Clear
2:55 AM 12.9 °F 1.6 °F 4.3 °F 68% 30.20 in 10.0 mi SSW 8.1 mph - N/A   Clear
3:55 AM 13.3 °F 1.1 °F 4.3 °F 67% 30.20 in 10.0 mi SW 9.2 mph - N/A   Clear
4:55 AM 15.8 °F 2.7 °F 5.7 °F 64% 30.19 in 10.0 mi SW 11.5 mph - N/A   Overcast
5:55 AM 18.5 °F 7.5 °F 8.8 °F 66% 30.19 in 10.0 mi WSW 9.2 mph - N/A   Overcast
6:55 AM 20.7 °F 7.6 °F 12.0 °F 69% 30.20 in 10.0 mi WSW 13.8 mph - N/A   Overcast
7:55 AM 19.9 °F 7.9 °F 12.9 °F 74% 30.20 in 10.0 mi SW 11.5 mph - N/A   Overcast
8:51 AM 19.4 °F 7.9 °F 12.2 °F 74% 30.21 in 10.0 mi WSW 10.4 mph - N/A   Mostly Cloudy
8:55 AM 19.0 °F 6.8 °F 13.3 °F 78% 30.21 in 10.0 mi WSW 11.5 mph - N/A   Mostly Cloudy
8:56 AM 19.4 °F 7.2 °F 14.0 °F 80% 30.21 in 10.0 mi WSW 11.5 mph - N/A   Mostly Cloudy
9:50 AM 21.2 °F 8.9 °F 15.8 °F 80% 30.16 in 10.0 mi SW 12.7 mph - N/A   Overcast
9:55 AM 20.8 °F 8.4 °F 15.6 °F 80% 30.22 in 10.0 mi SW 12.7 mph - N/A   Overcast
10:33 AM 21.2 °F 8.3 °F 17.6 °F 86% 30.18 in 10.0 mi SW 13.8 mph - N/A   Overcast
10:55 AM 22.6 °F 11.3 °F 17.8 °F 82% 30.24 in 10.0 mi SW 11.5 mph - N/A   Overcast
11:50 AM 24.8 °F 12.9 °F 19.4 °F 80% 30.23 in 10.0 mi WSW 13.8 mph - N/A   Overcast
11:55 AM 25.0 °F 12.6 °F 20.3 °F 82% 30.23 in 10.0 mi WSW 15.0 mph - N/A   Overcast
12:55 PM 26.6 °F 14.7 °F 21.6 °F 81% 30.22 in 10.0 mi West 15.0 mph - N/A   Overcast
1:55 PM 28.9 °F 16.5 °F 24.6 °F 84% 30.20 in 10.0 mi West 18.4 mph - N/A   Overcast
2:41 PM 28.4 °F 17.0 °F 24.8 °F 86% 30.20 in 10.0 mi West 15.0 mph - N/A   Overcast
2:55 PM 29.1 °F 17.1 °F 24.6 °F 83% 30.22 in 10.0 mi West 17.3 mph - N/A   Overcast
3:37 PM 30.2 °F 18.9 °F 24.8 °F 80% 30.23 in 10.0 mi West 16.1 mph - N/A   Overcast
3:55 PM 29.5 °F 17.6 °F 25.3 °F 85% 30.24 in 10.0 mi West 17.3 mph - N/A   Overcast
4:29 PM 30.2 °F 18.9 °F 24.8 °F 80% 30.24 in 10.0 mi West 16.1 mph - N/A   Overcast
4:55 PM 29.5 °F 17.6 °F 25.0 °F 83% 30.25 in 10.0 mi West 17.3 mph - 0.00 in Snow Light Snow
5:13 PM 30.2 °F 18.9 °F 24.8 °F 80% 30.25 in 10.0 mi West 16.1 mph - N/A   Overcast
5:55 PM 29.3 °F 18.2 °F 23.0 °F 77% 30.26 in 10.0 mi West 15.0 mph - 0.00 in   Overcast
6:55 PM 28.8 °F 16.2 °F 22.3 °F 77% 30.27 in 10.0 mi West 18.4 mph - N/A   Overcast
7:29 PM 26.6 °F 16.8 °F 23.0 °F 86% 30.28 in 10.0 mi West 10.4 mph - N/A   Overcast
7:55 PM 25.7 °F 14.6 °F 21.2 °F 83% 30.29 in 10.0 mi West 12.7 mph - N/A   Overcast
8:55 PM 23.2 °F 11.4 °F 17.8 °F 80% 30.30 in 10.0 mi West 12.7 mph - N/A   Clear
9:55 PM 20.8 °F 9.7 °F 16.0 °F 81% 30.31 in 10.0 mi West 10.4 mph - N/A   Clear
10:55 PM 18.1 °F 5.6 °F 13.8 °F 83% 30.31 in 10.0 mi West 11.5 mph - N/A   Clear
11:55 PM 17.4 °F 6.2 °F 13.3 °F 84% 30.30 in 10.0 mi West 9.2 mph - N/A   Clear